Regional Weather Roundup
Issued by NWS

Home | Current Version | Previous Version | Graphics & Text | Print | Product List | Glossary On
Versions: 1 2 3 4 5 6 7 8 9 10 11 12 13 14 15 16 17 18 19 20 21 22 23 24 25 26 27 28 29 30 31 32 33 34 35 36 37 38 39 40 41 42 43 44 45 46 47 48 49 50
000
ASUS45 KBOU 120210
RWRCO

WEATHER ROUNDUP FOR COLORADO
NATIONAL WEATHER SERVICE DENVER/BOULDER CO
800 PM MDT FRI JUL 11 2014

NOTE: "FAIR" INDICATES FEW OR NO CLOUDS BELOW 12000 FEET WITH NO
SIGNIFICANT WEATHER AND/OR OBSTRUCTIONS TO VISIBILITY.

COZ001>005-013-030-031-120300-
...NORTHWEST COLORADO...

CITY           SKY/WX    TMP DP  RH WIND       PRES   REMARKS
CRAIG          PTCLDY    71  59  65 N7        30.14R
HAYDEN         PTCLDY    73  54  49 E9        30.18R
MEEKER         PTCLDY    81  49  32 NW9       30.14R
MOUNT WERNER   NOT AVBL
STEAMBOAT SPGS PTCLDY    72  56  57 E7        30.21R
WALDEN         CLOUDY    63  48  59 E8        30.32R
$$

COZ006>008-011-120300-
...WEST CENTRAL VALLEYS...

CITY           SKY/WX    TMP DP  RH WIND       PRES   REMARKS
GRAND JUNCTION MOCLDY    87  51  28 S10       30.01R
MONTROSE       PTCLDY    81  48  31 E22       30.11R
EAGLE          CLOUDY    72  55  56 S9        30.22R
RIFLE          MOCLDY    74  57  55 E7        30.11R THUNDER
DELTA          PTCLDY    83  56  39 N10       30.07R
NUCLA          PTCLDY    86  41  20 W9        30.14R
$$

COZ017>023-064>068-120300-
...SOUTHWEST COLORADO...

CITY           SKY/WX    TMP DP  RH WIND       PRES   REMARKS
DURANGO        PTCLDY    84  45  25 NW5       30.18R
CORTEZ         CLEAR     87  42  20 W9        30.12R
PAGOSA SPRINGS TSTM      71  46  41 S8G26     30.34R VSB 1
TELLURIDE      MOCLDY    72  45  37 CALM      30.40R THUNDER
WOLF CREEK PAS NOT AVBL
$$

COZ009-010-012-014-032>034-037-058>063-120300-
...CENTRAL COLORADO...

CITY           SKY/WX    TMP DP  RH WIND       PRES   REMARKS
ASPEN          TSTM      67  51  56 SE7       30.32R
BUENA VISTA    MOCLDY    65  49  56 W10       30.37R
COPPER MTN     LGT RAIN  52  43  71 S18       30.67F
BERTHOUD PASS  FAIR      46  32  57 MISG      30.72S
COTTONWOOD PAS CLOUDY    63  43  48 NW5G16    30.51R
GUNNISON       MOCLDY    61  52  72 CALM      30.38R
KREMMLING      TSTM      70  46  43 N8G20     30.33R
LEADVILLE      CLOUDY    52  49  89 NE6       30.51F
MONARCH PASS   MOCLDY    54  43  66 SE5       30.78R THUNDER
SALIDA         MOCLDY   N/A N/A N/A N14       30.39R
SUNLIGHT       CLOUDY    54  50  87 SW3       30.55F
WILKERSON PASS MOCLDY    54  43  66 CALM      30.67R
$$

COZ069>075-120300-
...SAN LUIS VALLEY/SANGRE DE CRISTO MOUNTAINS...

CITY           SKY/WX    TMP DP  RH WIND       PRES   REMARKS
ALAMOSA        CLOUDY    66  49  54 SE8       30.31R
LA VETA PASS   LGT RAIN  50  45  81 SW18G29   30.50F
SAGUACHE       MOCLDY    72  46  40 NW5       30.36R
$$

COZ035-036-038>040-120300-
...NORTHERN COLORADO FRONT RANGE...

CITY           SKY/WX    TMP DP  RH WIND       PRES   REMARKS
DENVER INTL AP CLOUDY    70  63  78 W7        30.18R
DMNS CITY PARK   N/A     70  61  73 E7        30.14F
AURORA         MOCLDY    68  62  81 S8        30.20S
FRONT RANGE AP MOCLDY    73  64  73 CALM      30.19S
ERIE MUNI ARPT CLOUDY    74  60  60 N6        30.16S
BOULDER MUN AP CLOUDY    73  61  64 E3        30.17R
CENTENNIAL     CLOUDY    69  61  75 CALM      30.21F
BROOMFIELD     NOT AVBL
FORT COLLINS   CLOUDY    70  63  78 E12       30.16F
LONGMONT       CLOUDY    74  60  61 E3        30.17S
$$

COZ041-046-047-076>085-087-088-120300-
...PIKES PEAK/PALMER DIVIDE AND SOUTHERN FOOTHILLS...

CITY           SKY/WX    TMP DP  RH WIND       PRES   REMARKS
COLO. SPRINGS  CLOUDY    72  53  51 NW15      30.23S
A. F. ACADEMY  CLOUDY    73  52  47 NW9       30.26S
ELLICOTT       LGT RAIN  73  52  47 SE3       30.17F
FALCON         CLOUDY    66  54  65 N8        30.28F
FORT CARSON    CLOUDY    74  54  50 N16       30.19R
LIMON          CLOUDY    71  56  58 N20       30.16R
MONUMENT HILL  CLOUDY    66  50  55 E5        30.29F
TRINIDAD       CLOUDY    78  49  35 NW18G36   30.18R
$$

COZ042>045-048>051-090-091-120300-
...NORTHEAST COLORADO...

CITY           SKY/WX    TMP DP  RH WIND       PRES   REMARKS
GREELEY ARPT   NOT AVBL
AKRON          TSTM      65  63  93 N13       30.13R
BURLINGTON     PTCLDY    86  49  27 S17G25    30.00R
WRAY             N/A     78  62  57 N24G38    30.01R
STERLING       CLOUDY    70  68  94 SW7G20    30.13R
HOLYOKE        TSTM      70  61  73 N20G32    30.06F
FORT MORGAN    CLOUDY    69  62  78 NE7       30.13F
$$

COZ086-089-092>099-120300-
...SOUTHEAST COLORADO...

CITY           SKY/WX    TMP DP  RH WIND       PRES   REMARKS
PUEBLO         LGT RAIN  73  62  68 W7        30.10R
LA JUNTA       PTCLDY    87  54  32 W24G37    30.01R
LAMAR          CLEAR     91  46  21 S17G28    29.96R
SPRINGFIELD      N/A     83  47  28 S20       30.07R
$$


USA.gov is the U.S. government's official web portal to all federal, state and local government web resources and services.